Location: Aalen
(48.8330°N, 10.1000°E)
Time: 20:01:18
(UTC+02:00)

CAS-6 - Pass Details

Date: 04 April 2023
Orbit: 610 x 632 km, 97.9° (Epoch: 04 June)

Event Time Altitude Azimuth Distance (km) Brightness Sun altitude
Exits shadow 00:12:50 22° 314° (NW) 1,359 ? -33.6°
Drops below altitude 10° 00:14:44 10° 331° (NNW) 2,010 ? -33.7°
Sets 00:17:06 0° 340° (NNW) 2,926 ? -33.8°
